Date String (YYYY-MM-DD hh:mm:ss) UTC,Instrument flags,Ambient pressure (hPa),Sample flow (lpm),Bypass flow (lpm),Sample temperature (°C),Ambient temperature (°C),ASC tube jacket temperature (°C),LED temperature (°C),Box temperature (°C),Sample RH (%),Span deviation,Mass concentration (μg/m³),Mass concentration (μg/m³),Mass concentration (μg/m³)
DateTimeUTC,F1_M11,P_M11,Q1_M11,Q2_M11,T1_M11,T2_M11,T3_M11,T4_M11,T5_M11,U1_M11,ZSPAN_M11,X2_M11,X0_M11,X1_M11
2021-09-25 22:00:00,,0825.9,5.00,0.00,29.0,27.7,00.0,38.0,30.9,12.4,0001.3,0007.13,0017.29,0006.05
2021-09-25 22:01:00,,0825.9,5.00,0.00,29.1,28.0,00.0,38.0,31.0,12.3,0001.0,0007.09,0017.64,0006.04
2021-09-25 22:02:00,,0825.9,4.99,0.00,29.1,28.2,00.0,38.1,31.0,12.4,0000.7,0007.07,0017.35,0006.03
2021-09-25 22:03:00,,0825.8,5.01,0.00,29.1,27.1,00.0,38.1,30.8,12.9,0000.6,0007.04,0017.74,0006.03
2021-09-25 22:04:00,,0825.8,5.01,0.00,29.0,25.6,00.0,38.0,30.3,12.6,0001.3,0007.00,0018.71,0006.03
2021-09-25 22:05:00,,0826.0,4.99,0.00,28.9,25.7,00.0,38.0,30.3,12.1,0001.5,0006.93,0017.73,0006.02
2021-09-25 22:06:00,,0825.9,5.00,0.00,28.9,26.1,00.0,38.0,30.5,12.2,0001.6,0006.85,0015.97,0006.01
2021-09-25 22:07:00,,0825.9,5.00,0.00,28.9,26.6,00.0,38.0,30.6,12.3,0001.4,0006.78,0015.51,0005.99
2021-09-25 22:08:00,,0826.1,5.00,0.00,28.9,27.0,00.0,38.0,30.7,12.3,0001.5,0006.74,0015.11,0005.98
2021-09-25 22:09:00,,0826.1,4.99,0.00,28.9,27.4,00.0,38.0,30.8,12.5,0001.3,0006.70,0014.60,0005.99
2021-09-25 22:10:00,,0825.7,5.01,0.00,29.0,27.7,00.0,38.0,30.9,12.6,0001.6,0006.68,0013.78,0005.99
2021-09-25 22:11:00,,0825.7,5.00,0.00,29.1,28.0,00.0,38.0,31.0,12.8,0001.7,0006.65,0013.48,0005.98
2021-09-25 22:12:00,,0825.7,4.99,0.00,29.1,28.0,00.0,38.0,31.0,12.6,0001.7,0006.66,0013.15,0005.96
2021-09-25 22:13:00,,0825.7,5.00,0.00,29.0,26.3,00.0,38.0,30.5,12.5,0002.2,0006.68,0014.07,0005.96
2021-09-25 22:14:00,,0825.6,5.01,0.00,28.9,25.4,00.0,38.0,30.2,12.3,0002.7,0006.65,0014.07,0005.96
2021-09-25 22:15:00,,0825.9,5.00,0.00,28.8,25.8,00.0,38.0,30.3,12.2,0002.8,0006.60,0012.48,0005.95
2021-09-25 22:16:00,,0825.6,5.00,0.00,28.8,26.3,00.0,37.9,30.5,12.5,0002.7,0006.62,0012.81,0005.95
2021-09-25 22:17:00,,0825.7,4.99,0.00,28.8,26.7,00.0,37.9,30.6,12.4,0002.6,0006.67,0013.41,0005.97
2021-09-25 22:18:00,,0825.7,5.00,0.00,28.9,27.2,00.0,37.9,30.7,12.8,0002.3,0006.70,0013.88,0005.98
2021-09-25 22:19:00,,0825.7,4.99,0.00,28.9,27.6,00.0,37.9,30.8,12.8,0002.6,0006.75,0013.78,0005.98
2021-09-25 22:20:00,,0825.7,5.01,0.00,29.0,27.9,00.0,37.9,30.9,12.7,0002.5,0006.75,0013.79,0005.97
2021-09-25 22:21:00,,0825.7,4.99,0.00,29.1,28.2,00.0,38.0,31.0,13.0,0002.4,0006.77,0013.96,0005.96
2021-09-25 22:22:00,,0825.7,5.00,0.00,29.1,28.2,00.0,38.0,31.0,13.0,0002.5,0006.86,0014.30,0005.99
2021-09-25 22:23:00,,0825.6,5.01,0.00,29.1,26.7,00.0,38.0,30.6,12.2,0003.1,0006.86,0014.31,0006.00
2021-09-25 22:24:00,,0825.6,4.99,0.00,28.9,25.6,00.0,38.0,30.3,12.2,0003.2,0006.86,0013.57,0006.00
2021-09-25 22:25:00,,0825.5,4.99,0.00,28.9,25.9,00.0,38.0,30.4,13.0,0002.5,0006.92,0013.26,0006.02
2021-09-25 22:26:00,,0825.6,5.01,0.00,28.8,26.3,00.0,38.0,30.5,12.9,0002.0,0006.97,0013.64,0006.01
2021-09-25 22:27:00,,0825.6,5.00,0.00,28.8,26.8,00.0,37.9,30.6,13.1,0001.7,0006.94,0013.26,0006.02
2021-09-25 22:28:00,,0825.6,5.00,0.00,28.9,27.2,00.0,37.9,30.7,13.0,0001.9,0006.88,0012.74,0006.01
2021-09-25 22:29:00,,0825.6,4.99,0.00,29.0,27.6,00.0,38.0,30.8,12.7,0002.5,0006.86,0012.85,0006.00
2021-09-25 22:30:00,,0825.6,5.01,0.00,29.0,27.9,00.0,38.0,30.9,12.7,0002.5,0006.88,0013.04,0006.01
2021-09-25 22:31:00,,0825.6,5.01,0.00,29.1,28.0,00.0,38.0,31.0,12.2,0002.8,0006.89,0013.13,0006.03
2021-09-25 22:32:00,,0825.6,5.00,0.00,29.1,26.7,00.0,38.0,30.6,12.6,0003.1,0006.86,0013.52,0006.03
2021-09-25 22:33:00,,0825.6,4.99,0.00,28.9,25.5,00.0,38.0,30.3,12.8,0003.1,0006.87,0013.47,0006.03
2021-09-25 22:34:00,,0825.6,5.01,0.00,28.8,25.8,00.0,38.0,30.3,12.3,0002.6,0006.90,0014.20,0006.03
2021-09-25 22:35:00,,0825.6,5.00,0.00,28.8,26.2,00.0,37.9,30.4,12.7,0002.2,0006.86,0014.21,0006.03
2021-09-25 22:36:00,,0825.6,4.99,0.00,28.8,26.7,00.0,37.9,30.5,13.1,0002.4,0006.86,0014.84,0006.02
2021-09-25 22:37:00,,0825.6,5.01,0.00,28.8,27.1,00.0,37.9,30.6,12.9,0002.6,0006.80,0014.71,0006.01
2021-09-25 22:38:00,,0825.6,5.00,0.00,28.9,27.5,00.0,37.9,30.8,12.9,0002.6,0006.87,0014.78,0006.01
2021-09-25 22:39:00,,0825.6,4.99,0.00,29.0,27.8,00.0,37.9,30.9,12.2,0002.6,0006.91,0014.86,0006.03
2021-09-25 22:40:00,,0825.6,5.00,0.00,29.0,28.1,00.0,37.9,31.0,12.0,0002.6,0006.90,0014.21,0006.04
2021-09-25 22:41:00,,0825.5,5.01,0.00,29.1,28.3,00.0,38.0,31.0,12.4,0002.5,0006.86,0013.88,0006.04
2021-09-25 22:42:00,,0825.5,4.99,0.00,29.1,27.0,00.0,38.0,30.7,12.7,0002.5,0006.84,0013.76,0006.04
2021-09-25 22:43:00,,0825.5,5.01,0.00,28.9,25.6,00.0,38.0,30.3,12.8,0002.1,0006.84,0013.07,0006.03
2021-09-25 22:44:00,,0825.5,4.99,0.00,28.8,25.8,00.0,38.0,30.3,12.9,0001.9,0006.84,0012.98,0006.02
2021-09-25 22:45:00,,0825.5,5.00,0.00,28.8,26.2,00.0,37.9,30.4,12.6,0001.9,0006.80,0012.08,0006.02
2021-09-25 22:46:00,,0825.5,5.00,0.00,28.8,26.7,00.0,37.9,30.5,12.4,0001.8,0006.87,0011.98,0006.03
2021-09-25 22:47:00,,0825.5,5.01,0.00,28.9,27.1,00.0,37.9,30.7,12.8,0001.6,0006.88,0011.38,0006.05
2021-09-25 22:48:00,,0825.5,4.99,0.00,28.9,27.4,00.0,37.9,30.8,12.7,0001.8,0006.91,0011.20,0006.06
2021-09-25 22:49:00,,0825.5,5.00,0.00,29.0,27.7,00.0,37.9,30.9,12.5,0002.1,0006.89,0011.38,0006.08
2021-09-25 22:50:00,,0825.5,5.02,0.00,29.1,28.0,00.0,37.9,31.0,12.3,0002.2,0006.86,0011.42,0006.07
2021-09-25 22:51:00,,0825.5,5.00,0.00,29.1,28.2,00.0,38.0,31.0,12.4,0002.0,0006.86,0011.47,0006.06
2021-09-25 22:52:00,,0825.5,5.01,0.00,29.1,27.3,00.0,38.0,30.8,12.4,0001.7,0006.87,0012.66,0006.05
2021-09-25 22:53:00,,0825.5,5.00,0.00,29.0,25.6,00.0,38.0,30.3,12.4,0001.4,0006.90,0013.36,0006.06
2021-09-25 22:54:00,,0825.5,5.00,0.00,28.9,25.6,00.0,38.0,30.3,12.6,0001.6,0007.01,0014.65,0006.09
2021-09-25 22:55:00,,0825.5,5.00,0.00,28.8,26.1,00.0,38.0,30.4,12.2,0001.9,0007.00,0015.15,0006.11
2021-09-25 22:56:00,,0825.5,5.01,0.00,28.8,26.6,00.0,37.9,30.5,12.2,0002.4,0006.97,0015.17,0006.12
2021-09-25 22:57:00,,0825.6,5.00,0.00,28.9,27.0,00.0,37.9,30.6,12.5,0002.7,0006.92,0015.06,0006.11
2021-09-25 22:58:00,,0825.5,5.00,0.00,28.9,27.4,00.0,37.9,30.7,12.6,0003.1,0006.93,0015.24,0006.10
2021-09-25 22:59:00,,0825.5,4.99,0.00,29.0,27.7,00.0,37.9,30.8,12.4,0003.1,0006.94,0015.43,0006.10
